Time,TemperatureF,DewpointF,PressureIn,WindDirection,WindDirectionDegrees,WindSpeedMPH,WindSpeedGustMPH,Humidity,HourlyPrecipIn,Conditions,Clouds,dailyrainin,SoftwareType,DateUTC
2013-05-18 00:10:00,75.6,71.0,29.80,SSE,158,6.0,12.0,86,0.00,,,0.00,weatherlink.com 1.10,2013-05-18 05:10:00,
2013-05-18 00:25:00,75.0,71.0,29.80,East,91,5.0,10.0,86,0.00,,,0.00,weatherlink.com 1.10,2013-05-18 05:25:00,
2013-05-18 00:40:00,74.5,70.0,29.80,SSW,204,9.0,12.0,86,0.00,,,0.00,weatherlink.com 1.10,2013-05-18 05:40:00,
2013-05-18 00:55:00,74.0,70.0,29.80,SE,134,2.0,8.0,86,0.00,,,0.00,weatherlink.com 1.10,2013-05-18 05:55:00,
2013-05-18 01:10:00,73.5,69.0,29.80,South,187,4.0,9.0,85,0.00,,,0.00,weatherlink.com 1.10,2013-05-18 06:10:00,
2013-05-18 01:25:00,72.9,69.0,29.80,South,183,2.0,8.0,86,0.00,,,0.00,weatherlink.com 1.10,2013-05-18 06:25:00,
2013-05-18 01:40:00,72.4,68.0,29.79,SSW,203,2.0,7.0,86,0.00,,,0.00,weatherlink.com 1.10,2013-05-18 06:40:00,
2013-05-18 01:56:00,72.0,68.0,29.79,SSW,203,3.0,7.0,87,0.00,,,0.00,weatherlink.com 1.10,2013-05-18 06:56:00,
2013-05-18 02:11:00,71.5,68.0,29.78,SW,219,3.0,8.0,88,0.00,,,0.00,weatherlink.com 1.10,2013-05-18 07:11:00,
2013-05-18 02:26:00,71.0,67.0,29.79,ESE,120,1.0,5.0,88,0.00,,,0.00,weatherlink.com 1.10,2013-05-18 07:26:00,
2013-05-18 02:41:00,70.6,67.0,29.79,SSW,200,2.0,5.0,89,0.00,,,0.00,weatherlink.com 1.10,2013-05-18 07:41:00,
2013-05-18 02:56:00,70.5,67.0,29.79,SSW,211,2.0,5.0,89,0.00,,,0.00,weatherlink.com 1.10,2013-05-18 07:56:00,
2013-05-18 03:11:00,70.1,67.0,29.79,SSW,203,3.0,5.0,89,0.00,,,0.00,weatherlink.com 1.10,2013-05-18 08:11:00,
2013-05-18 03:26:00,69.8,67.0,29.79,South,174,3.0,6.0,89,0.00,,,0.00,weatherlink.com 1.10,2013-05-18 08:26:00,
2013-05-18 03:41:00,69.4,66.0,29.79,SSW,203,3.0,7.0,90,0.00,,,0.00,weatherlink.com 1.10,2013-05-18 08:41:00,
2013-05-18 03:56:00,68.9,66.0,29.79,SSW,195,1.0,4.0,91,0.00,,,0.00,weatherlink.com 1.10,2013-05-18 08:56:00,
2013-05-18 04:11:00,68.6,66.0,29.79,South,176,0.0,6.0,91,0.00,,,0.00,weatherlink.com 1.10,2013-05-18 09:11:00,
2013-05-18 04:26:00,68.3,66.0,29.79,SSW,208,2.0,4.0,92,0.00,,,0.00,weatherlink.com 1.10,2013-05-18 09:26:00,
2013-05-18 04:41:00,68.0,66.0,29.79,SSW,200,0.0,4.0,93,0.00,,,0.00,weatherlink.com 1.10,2013-05-18 09:41:00,
2013-05-18 04:56:00,68.0,66.0,29.79,SSW,211,1.0,4.0,93,0.00,,,0.00,weatherlink.com 1.10,2013-05-18 09:56:00,
2013-05-18 05:11:00,67.9,66.0,29.79,SW,222,2.0,4.0,94,0.00,,,0.00,weatherlink.com 1.10,2013-05-18 10:11:00,
2013-05-18 05:26:00,67.8,66.0,29.79,SSE,158,0.0,4.0,94,0.00,,,0.00,weatherlink.com 1.10,2013-05-18 10:26:00,
2013-05-18 05:41:00,67.7,66.0,29.79,SSW,205,0.0,4.0,95,0.00,,,0.00,weatherlink.com 1.10,2013-05-18 10:41:00,
2013-05-18 05:56:00,67.6,66.0,29.79,SSW,205,1.0,3.0,95,0.00,,,0.00,weatherlink.com 1.10,2013-05-18 10:56:00,
2013-05-18 06:11:00,67.4,66.0,29.80,South,189,1.0,3.0,95,0.00,,,0.00,weatherlink.com 1.10,2013-05-18 11:11:00,
2013-05-18 06:26:00,67.4,66.0,29.80,South,176,1.0,5.0,95,0.00,,,0.00,weatherlink.com 1.10,2013-05-18 11:26:00,
2013-05-18 06:41:00,67.3,66.0,29.80,SSW,211,2.0,4.0,95,0.00,,,0.00,weatherlink.com 1.10,2013-05-18 11:41:00,
2013-05-18 06:56:00,67.4,66.0,29.81,SSW,194,3.0,4.0,96,0.00,,,0.00,weatherlink.com 1.10,2013-05-18 11:56:00,
2013-05-18 07:11:00,67.3,66.0,29.81,SSW,207,0.0,5.0,96,0.00,,,0.00,weatherlink.com 1.10,2013-05-18 12:11:00,
2013-05-18 07:26:00,67.9,67.0,29.81,SSE,149,3.0,6.0,96,0.00,,,0.00,weatherlink.com 1.10,2013-05-18 12:26:00,
2013-05-18 07:41:00,68.6,67.0,29.81,SW,228,1.0,14.0,95,0.00,,,0.00,weatherlink.com 1.10,2013-05-18 12:41:00,
2013-05-18 07:56:00,69.1,68.0,29.81,SSE,155,3.0,7.0,95,0.00,,,0.00,weatherlink.com 1.10,2013-05-18 12:56:00,
2013-05-18 08:11:00,69.6,68.0,29.81,SW,226,1.0,10.0,94,0.00,,,0.00,weatherlink.com 1.10,2013-05-18 13:11:00,
2013-05-18 08:26:00,70.1,68.0,29.82,South,181,4.0,10.0,93,0.00,,,0.00,weatherlink.com 1.10,2013-05-18 13:26:00,
2013-05-18 08:41:00,70.6,68.0,29.82,SSW,203,4.0,12.0,92,0.00,,,0.00,weatherlink.com 1.10,2013-05-18 13:41:00,
2013-05-18 08:56:00,72.0,69.0,29.82,East,90,4.0,8.0,91,0.00,,,0.00,weatherlink.com 1.10,2013-05-18 13:56:00,
2013-05-18 09:11:00,73.6,70.0,29.82,SSW,198,5.0,11.0,87,0.00,,,0.00,weatherlink.com 1.10,2013-05-18 14:11:00,
2013-05-18 09:26:00,74.8,69.0,29.82,SSW,204,7.0,13.0,83,0.00,,,0.00,weatherlink.com 1.10,2013-05-18 14:26:00,
2013-05-18 09:41:00,75.9,70.0,29.82,SW,231,9.0,16.0,81,0.00,,,0.00,weatherlink.com 1.10,2013-05-18 14:41:00,
2013-05-18 09:56:00,77.5,70.0,29.83,SW,231,10.0,15.0,77,0.00,,,0.00,weatherlink.com 1.10,2013-05-18 14:56:00,
2013-05-18 10:11:00,78.7,70.0,29.83,South,183,7.0,14.0,75,0.00,,,0.00,weatherlink.com 1.10,2013-05-18 15:11:00,
2013-05-18 10:26:00,80.7,70.0,29.82,SSE,166,4.0,12.0,70,0.00,,,0.00,weatherlink.com 1.10,2013-05-18 15:26:00,
2013-05-18 10:41:00,82.3,70.0,29.82,SSE,156,5.0,16.0,66,0.00,,,0.00,weatherlink.com 1.10,2013-05-18 15:41:00,
2013-05-18 10:56:00,81.4,67.0,29.82,SSE,165,10.0,17.0,62,0.00,,,0.00,weatherlink.com 1.10,2013-05-18 15:56:00,
2013-05-18 11:11:00,81.4,68.0,29.81,South,187,10.0,22.0,64,0.00,,,0.00,weatherlink.com 1.10,2013-05-18 16:11:00,
2013-05-18 11:26:00,82.9,68.0,29.81,SW,233,8.0,19.0,61,0.00,,,0.00,weatherlink.com 1.10,2013-05-18 16:26:00,
2013-05-18 11:42:00,83.7,67.0,29.80,SSW,212,7.0,18.0,58,0.00,,,0.00,weatherlink.com 1.10,2013-05-18 16:42:00,
2013-05-18 11:57:00,85.3,68.0,29.80,SW,214,7.0,20.0,57,0.00,,,0.00,weatherlink.com 1.10,2013-05-18 16:57:00,
2013-05-18 12:12:00,85.0,68.0,29.80,SW,233,5.0,21.0,57,0.00,,,0.00,weatherlink.com 1.10,2013-05-18 17:12:00,
2013-05-18 12:27:00,84.8,68.0,29.80,SSW,193,7.0,15.0,58,0.00,,,0.00,weatherlink.com 1.10,2013-05-18 17:27:00,
2013-05-18 12:42:00,85.1,70.0,29.80,SSW,198,12.0,18.0,60,0.00,,,0.00,weatherlink.com 1.10,2013-05-18 17:42:00,
2013-05-18 12:57:00,84.5,69.0,29.79,SSW,211,3.0,19.0,60,0.00,,,0.00,weatherlink.com 1.10,2013-05-18 17:57:00,
2013-05-18 13:12:00,86.4,70.0,29.78,SW,214,8.0,20.0,58,0.00,,,0.00,weatherlink.com 1.10,2013-05-18 18:12:00,
2013-05-18 13:27:00,86.6,70.0,29.77,SSW,211,5.0,18.0,57,0.00,,,0.00,weatherlink.com 1.10,2013-05-18 18:27:00,
2013-05-18 13:42:00,86.5,69.0,29.77,SSW,205,9.0,19.0,56,0.00,,,0.00,weatherlink.com 1.10,2013-05-18 18:42:00,
2013-05-18 13:57:00,87.4,69.0,29.76,ESE,116,7.0,18.0,55,0.00,,,0.00,weatherlink.com 1.10,2013-05-18 18:57:00,
2013-05-18 14:12:00,89.2,68.0,29.76,SW,215,14.0,18.0,50,0.00,,,0.00,weatherlink.com 1.10,2013-05-18 19:12:00,
2013-05-18 14:27:00,89.3,69.0,29.75,WSW,244,14.0,18.0,51,0.00,,,0.00,weatherlink.com 1.10,2013-05-18 19:27:00,
2013-05-18 14:42:00,89.9,69.0,29.75,SSE,163,7.0,19.0,51,0.00,,,0.00,weatherlink.com 1.10,2013-05-18 19:42:00,
2013-05-18 14:57:00,90.3,70.0,29.75,SW,214,9.0,17.0,51,0.00,,,0.00,weatherlink.com 1.10,2013-05-18 19:57:00,
2013-05-18 15:12:00,90.3,69.0,29.75,South,173,13.0,16.0,50,0.00,,,0.00,weatherlink.com 1.10,2013-05-18 20:12:00,
2013-05-18 15:27:00,90.2,69.0,29.74,SSW,196,8.0,16.0,50,0.00,,,0.00,weatherlink.com 1.10,2013-05-18 20:27:00,
2013-05-18 15:42:00,90.8,70.0,29.73,SW,217,10.0,17.0,50,0.00,,,0.00,weatherlink.com 1.10,2013-05-18 20:42:00,
2013-05-18 15:57:00,91.2,69.0,29.73,SSW,211,6.0,17.0,48,0.00,,,0.00,weatherlink.com 1.10,2013-05-18 20:57:00,
2013-05-18 16:12:00,91.3,70.0,29.73,SSE,153,4.0,15.0,49,0.00,,,0.00,weatherlink.com 1.10,2013-05-18 21:12:00,
2013-05-18 16:27:00,90.6,68.0,29.73,SW,217,9.0,17.0,48,0.00,,,0.00,weatherlink.com 1.10,2013-05-18 21:27:00,
2013-05-18 16:42:00,90.0,69.0,29.73,SSW,196,5.0,14.0,50,0.00,,,0.00,weatherlink.com 1.10,2013-05-18 21:42:00,
2013-05-18 16:57:00,88.5,68.0,29.72,SSW,205,12.0,15.0,51,0.00,,,0.00,weatherlink.com 1.10,2013-05-18 21:57:00,
2013-05-18 17:12:00,87.8,68.0,29.72,South,181,9.0,17.0,52,0.00,,,0.00,weatherlink.com 1.10,2013-05-18 22:12:00,
2013-05-18 17:27:00,87.4,68.0,29.73,South,177,5.0,11.0,53,0.00,,,0.00,weatherlink.com 1.10,2013-05-18 22:27:00,
2013-05-18 17:42:00,87.3,69.0,29.73,South,190,3.0,11.0,54,0.00,,,0.00,weatherlink.com 1.10,2013-05-18 22:42:00,
2013-05-18 17:57:00,87.2,69.0,29.72,SSW,195,3.0,15.0,54,0.00,,,0.00,weatherlink.com 1.10,2013-05-18 22:57:00,
2013-05-18 18:12:00,86.8,69.0,29.71,SW,217,9.0,11.0,55,0.00,,,0.00,weatherlink.com 1.10,2013-05-18 23:12:00,
2013-05-18 18:27:00,86.7,69.0,29.71,SW,229,6.0,13.0,56,0.00,,,0.00,weatherlink.com 1.10,2013-05-18 23:27:00,
2013-05-18 18:42:00,87.6,69.0,29.71,ESE,123,11.0,15.0,54,0.00,,,0.00,weatherlink.com 1.10,2013-05-18 23:42:00,
2013-05-18 18:57:00,86.5,68.0,29.71,SW,221,7.0,14.0,54,0.00,,,0.00,weatherlink.com 1.10,2013-05-18 23:57:00,
2013-05-18 19:12:00,86.0,68.0,29.71,SSW,203,6.0,17.0,56,0.00,,,0.00,weatherlink.com 1.10,2013-05-19 00:12:00,
2013-05-18 19:27:00,85.4,68.0,29.71,SSW,205,9.0,17.0,57,0.00,,,0.00,weatherlink.com 1.10,2013-05-19 00:27:00,
2013-05-18 19:42:00,84.4,68.0,29.72,SSW,203,4.0,12.0,58,0.00,,,0.00,weatherlink.com 1.10,2013-05-19 00:42:00,
2013-05-18 19:57:00,83.3,66.0,29.71,SSW,208,10.0,14.0,57,0.00,,,0.00,weatherlink.com 1.10,2013-05-19 00:57:00,
2013-05-18 20:12:00,82.3,66.0,29.71,South,169,11.0,16.0,58,0.00,,,0.00,weatherlink.com 1.10,2013-05-19 01:12:00,
2013-05-18 20:27:00,81.4,66.0,29.72,SSW,212,5.0,17.0,60,0.00,,,0.00,weatherlink.com 1.10,2013-05-19 01:27:00,
2013-05-18 20:42:00,80.6,66.0,29.72,SSW,198,6.0,12.0,62,0.00,,,0.00,weatherlink.com 1.10,2013-05-19 01:42:00,
2013-05-18 20:57:00,79.9,66.0,29.72,WSW,248,11.0,13.0,63,0.00,,,0.00,weatherlink.com 1.10,2013-05-19 01:57:00,
2013-05-18 21:12:00,79.5,67.0,29.73,SE,145,6.0,18.0,65,0.00,,,0.00,weatherlink.com 1.10,2013-05-19 02:12:00,
2013-05-18 21:27:00,78.8,67.0,29.73,South,180,13.0,13.0,68,0.00,,,0.00,weatherlink.com 1.10,2013-05-19 02:27:00,
2013-05-18 21:42:00,78.3,67.0,29.73,SSE,159,5.0,13.0,69,0.00,,,0.00,weatherlink.com 1.10,2013-05-19 02:42:00,
2013-05-18 21:57:00,78.1,68.0,29.74,South,172,4.0,12.0,70,0.00,,,0.00,weatherlink.com 1.10,2013-05-19 02:57:00,
2013-05-18 22:12:00,77.8,67.0,29.74,SSW,208,6.0,10.0,70,0.00,,,0.00,weatherlink.com 1.10,2013-05-19 03:12:00,
2013-05-18 22:27:00,77.5,67.0,29.75,South,184,5.0,13.0,69,0.00,,,0.00,weatherlink.com 1.10,2013-05-19 03:27:00,
2013-05-18 22:42:00,77.0,66.0,29.75,SSW,195,5.0,13.0,69,0.00,,,0.00,weatherlink.com 1.10,2013-05-19 03:42:00,
2013-05-18 22:57:00,76.7,66.0,29.75,SSW,200,1.0,10.0,69,0.00,,,0.00,weatherlink.com 1.10,2013-05-19 03:57:00,
2013-05-18 23:12:00,75.9,66.0,29.76,SE,138,3.0,10.0,71,0.00,,,0.00,weatherlink.com 1.10,2013-05-19 04:12:00,
2013-05-18 23:27:00,75.0,66.0,29.76,SSW,211,4.0,7.0,73,0.00,,,0.00,weatherlink.com 1.10,2013-05-19 04:27:00,
2013-05-18 23:42:00,74.5,65.0,29.76,South,176,1.0,8.0,73,0.00,,,0.00,weatherlink.com 1.10,2013-05-19 04:42:00,
2013-05-18 23:57:00,74.0,65.0,29.77,SE,132,3.0,7.0,74,0.00,,,0.00,weatherlink.com 1.10,2013-05-19 04:57:00,